Location: Izdebno
(52.6670°N, 16.2170°E)
Time: 17:16:45
(UTC+01:00)

Transit 2A - All Passes

Search period start: 29 January 2023 00:00
Search period end: 08 February 2023 00:00
Orbit: 594 x 962 km, 66.7° (Epoch: 29 January)

Date Brightness Start Highest point End Pass type
(mag) Time Alt. Az. Time Alt. Az. Time Alt. Az.
29 Jan - 00:23:18 10° NNW 00:28:10 28° NNE 00:33:23 10° E night (unlit)
29 Jan - 02:06:26 10° NW 02:12:20 70° NE 02:18:38 10° SE night (unlit)
29 Jan - 03:50:01 10° NW 03:55:17 32° WSW 04:00:46 10° S night (unlit)
29 Jan - 16:55:33 10° SE 16:57:40 13° ESE 16:59:52 10° ENE daylight
29 Jan - 18:34:51 10° SSW 18:39:41 69° SE 18:45:08 10° NE visible
29 Jan - 20:18:42 10° W 20:23:21 34° NNW 20:28:29 10° NNE visible
29 Jan - 22:04:14 10° NW 22:08:13 20° N 22:12:28 10° NE visible
29 Jan - 23:48:42 10° NW 23:53:21 25° NNE 23:58:17 10° ENE night (unlit)
30 Jan - 01:31:56 10° NW 01:37:44 56° NE 01:43:55 10° ESE night (unlit)
30 Jan - 03:15:18 10° NW 03:20:55 42° WSW 03:26:49 10° S night (unlit)
30 Jan - 18:00:35 10° SSW 18:05:16 50° ESE 18:10:31 10° NE visible
30 Jan - 19:43:50 10° WSW 19:48:38 41° NW 19:53:57 10° NE visible
30 Jan - 21:29:15 10° WNW 21:33:19 21° N 21:37:41 10° NE visible
30 Jan - 23:14:05 10° NW 23:18:30 22° NNE 23:23:11 10° ENE night (unlit)
31 Jan - 00:57:26 10° NW 01:03:05 46° NE 01:09:06 10° ESE night (unlit)
31 Jan - 02:40:41 10° NW 02:46:32 55° WSW 02:52:40 10° SSE night (unlit)
31 Jan - 04:26:14 10° WNW 04:28:39 12° WSW 04:31:07 10° SW night (unlit)
31 Jan - 17:26:29 10° S 17:30:55 37° ESE 17:35:50 10° NE visible
31 Jan - 19:09:04 10° WSW 19:13:57 52° NW 19:19:26 10° NE visible
31 Jan - 20:54:15 10° WNW 20:58:27 23° NNW 21:02:58 10° NE visible
31 Jan - 22:39:23 10° NW 22:43:37 21° N 22:48:06 10° ENE visible
01 Feb - 00:22:57 10° NW 00:28:23 38° NE 00:34:11 10° ESE night (unlit)
01 Feb - 02:06:05 10° NW 02:12:04 72° SW 02:18:21 10° SSE night (unlit)
01 Feb - 03:50:37 10° WNW 03:54:27 17° WSW 03:58:24 10° SW night (unlit)
01 Feb - 16:52:34 10° SSE 16:56:38 27° ESE 17:01:03 10° NE daylight
01 Feb - 18:34:23 10° SW 18:39:20 66° NW 18:44:55 10° NE visible
01 Feb - 20:19:14 10° WNW 20:23:35 25° NNW 20:28:20 10° NE visible
01 Feb - 22:04:36 10° NW 22:08:42 20° N 22:13:03 10° NE visible
01 Feb - 23:48:25 10° NNW 23:53:38 33° NNE 23:59:11 10° E night (unlit)
02 Feb - 01:31:33 10° NW 01:37:33 90° ENE 01:43:55 10° SE night (unlit)
02 Feb - 03:15:31 10° WNW 03:20:13 24° WSW 03:25:03 10° SSW night (unlit)
02 Feb - 16:18:57 10° SSE 16:22:24 19° ESE 16:26:05 10° ENE daylight
02 Feb - 17:59:49 10° SW 18:04:47 86° NW 18:10:22 10° NE visible
02 Feb - 19:44:14 10° W 19:48:46 29° NNW 19:53:44 10° NNE visible
02 Feb - 21:29:45 10° NW 21:33:47 20° N 21:38:05 10° NE visible
02 Feb - 23:13:52 10° NW 23:18:51 28° NNE 23:24:07 10° E visible
03 Feb - 00:57:02 10° NW 01:03:00 72° NE 01:09:20 10° SE night (unlit)
03 Feb - 02:40:39 10° NW 02:45:55 31° WSW 02:51:21 10° S night (unlit)
03 Feb - 15:45:49 10° SE 15:48:13 14° ESE 15:50:44 10° ENE daylight
03 Feb - 17:25:22 10° SSW 17:30:17 72° SE 17:35:48 10° NE visible
03 Feb - 19:09:17 10° W 19:13:59 34° NNW 19:19:10 10° NE visible
03 Feb - 20:54:50 10° NW 20:58:52 20° N 21:03:12 10° NE visible
03 Feb - 22:39:17 10° NW 22:44:01 25° NNE 22:49:02 10° ENE visible
04 Feb - 00:22:31 10° NW 00:28:24 58° NE 00:34:37 10° ESE night (unlit)
04 Feb - 02:05:55 10° NW 02:11:33 41° WSW 02:17:25 10° S night (unlit)
04 Feb - 16:51:04 10° SSW 16:55:50 53° ESE 17:01:12 10° NE daylight
04 Feb - 18:34:24 10° WSW 18:39:14 41° NW 18:44:38 10° NE visible
04 Feb - 20:19:50 10° WNW 20:23:58 21° N 20:28:23 10° NE visible
04 Feb - 22:04:38 10° NW 22:09:09 23° NNE 22:13:55 10° ENE visible
04 Feb - 23:48:01 10° NW 23:53:44 47° NE 23:59:47 10° ESE visible
05 Feb - 01:31:16 10° NW 01:37:09 54° WSW 01:43:17 10° SSE night (unlit)
05 Feb - 03:17:00 10° W 03:19:14 12° W 03:21:29 10° WSW night (unlit)
05 Feb - 16:16:56 10° S 16:21:28 38° ESE 16:26:31 10° NE daylight
05 Feb - 17:59:36 10° WSW 18:04:33 51° NW 18:10:05 10° NE visible
05 Feb - 19:44:49 10° WNW 19:49:04 23° NNW 19:53:39 10° NE visible
05 Feb - 21:29:56 10° NW 21:34:15 21° N 21:38:49 10° ENE visible
05 Feb - 23:13:30 10° NW 23:19:01 39° NE 23:24:53 10° ESE visible
06 Feb - 00:56:40 10° NW 01:02:41 70° SW 01:08:59 10° SSE night (unlit)
06 Feb - 02:41:16 10° WNW 02:45:03 17° WSW 02:48:53 10° SW night (unlit)
06 Feb - 15:42:59 10° S 15:47:10 28° ESE 15:51:44 10° NE daylight
06 Feb - 17:24:54 10° SW 17:29:55 65° NW 17:35:33 10° NE visible
06 Feb - 19:09:47 10° WNW 19:14:12 25° NNW 19:18:59 10° NE visible
06 Feb - 20:55:09 10° NW 20:59:20 21° N 21:03:46 10° NE visible
06 Feb - 22:38:57 10° NW 22:44:16 33° NNE 22:49:53 10° E visible
07 Feb - 00:22:07 10° NW 00:28:11 88° SW 00:34:33 10° SE night (unlit)
07 Feb - 02:06:08 10° WNW 02:10:47 23° WSW 02:15:34 10° SSW night (unlit)
07 Feb - 15:09:19 10° SSE 15:12:55 20° ESE 15:16:47 10° ENE daylight
07 Feb - 16:50:18 10° SW 16:55:20 84° NW 17:01:00 10° NE daylight
07 Feb - 18:34:47 10° W 18:39:22 29° NNW 18:44:23 10° NE visible
07 Feb - 20:20:18 10° NW 20:24:24 20° N 20:28:47 10° NE visible
07 Feb - 22:04:24 10° NW 22:09:28 29° NNE 22:14:50 10° E visible
07 Feb - 23:47:34 10° NW 23:53:36 74° NE 23:59:57 10° SE visible
